Vancouver, WA
on Monday, February 11, 2013

Monday
Previous Day Next Day
Daily Summary
 ActualAverageRecord
Temperature
Mean Temperature °F 43°F  
Max Temperature 46°F 51°F 65°F (1931)
Min Temperature 41°F 35°F 13°F (1929)
Degree Days
Heating Degree Days 21    
Month to date heating degree days 248  
Since 1 July heating degree days 2671  
Cooling Degree Days 0    
Month to date cooling degree days 0  
Year to date cooling degree days 0  
Moisture
Dew Point 38°F   
Average Humidity 81    
Maximum Humidity 96    
Minimum Humidity 65    
Precipitation
Precipitation 0.01 in 0.15 in 0.83 in (1969)
Month to date precipitation 0.17 1.86  
Year to date precipitation 3.57 7.36  
Snow
Snow 0.00 in in in ()
Month to date snowfall 0.0  
Snow Depth 0.00 in   
Wind
Wind Speed 2 mph   
Max Wind Speed 9 mph   
Max Gust Speed 10 mph   
Visibility 7 miles   
Events     

Key: T is trace of precipitation, MM is missing value
Source: NWS Daily Summary
Time(PST)TemperatureDew PointHumidity Pressure Visibility Wind DirectionWind SpeedGust SpeedPrecipitationEvents Conditions
12:53 AM 44.1°F 34.0°F 68% 30.34 in 10.0 miles NW 4.6 mph - N/A   Overcast
1:53 AM 43.0°F 34.0°F 71% 30.35 in 10.0 miles WNW 3.5 mph - N/A   Overcast
2:53 AM 43.0°F 34.0°F 71% 30.35 in 10.0 miles West 3.5 mph - N/A   Overcast
3:53 AM 43.0°F 34.0°F 71% 30.34 in 10.0 miles Calm Calm - N/A   Overcast
4:53 AM 41.0°F 35.1°F 79% 30.35 in 10.0 miles Calm Calm - N/A   Overcast
5:53 AM 42.1°F 35.1°F 76% 30.36 in 10.0 miles Calm Calm - N/A   Overcast
6:53 AM 42.1°F 35.1°F 76% 30.36 in 10.0 miles Calm Calm - N/A   Overcast
7:53 AM 43.0°F 35.1°F 74% 30.37 in 10.0 miles Calm Calm - N/A   Overcast
8:53 AM 44.1°F 35.1°F 71% 30.37 in 10.0 miles Calm Calm - N/A   Overcast
9:53 AM 45.0°F 35.1°F 68% 30.39 in 10.0 miles Calm Calm - N/A   Overcast
10:30 AM 44.6°F 35.6°F 71% 30.39 in 10.0 miles Calm Calm - N/A   Overcast
10:53 AM 45.0°F 35.1°F 68% 30.39 in 10.0 miles Calm Calm - N/A   Overcast
11:53 AM 45.0°F 36.0°F 71% 30.39 in 10.0 miles Calm Calm - 0.00 in   Overcast
12:53 PM 46.0°F 37.9°F 73% 30.39 in 10.0 miles SE 4.6 mph - N/A   Overcast
1:48 PM 42.8°F 39.2°F 87% 30.38 in 3.0 miles SSE 5.8 mph - N/A   Overcast
1:53 PM 43.0°F 39.9°F 89% 30.38 in 2.5 miles SSE 5.8 mph - N/A   Overcast
2:53 PM 44.1°F 39.9°F 85% 30.38 in 8.0 miles SSE 4.6 mph - N/A   Overcast
3:14 PM 44.6°F 39.2°F 81% 30.38 in 7.0 miles Calm Calm - N/A   Overcast
3:38 PM 44.6°F 39.2°F 81% 30.38 in 5.0 miles SSE 3.5 mph - N/A   Overcast
3:53 PM 44.1°F 41.0°F 89% 30.38 in 3.0 miles SSE 4.6 mph - N/A   Overcast
3:56 PM 44.6°F 41.0°F 87% 30.38 in 2.5 miles SE 4.6 mph - N/A   Overcast
4:10 PM 44.6°F 41.0°F 87% 30.38 in 2.0 miles SE 4.6 mph - N/A   Overcast
4:28 PM 44.6°F 41.0°F 87% 30.38 in 3.0 miles ESE 3.5 mph - N/A   Overcast
4:53 PM 44.1°F 41.0°F 89% 30.38 in 6.0 miles SE 4.6 mph - N/A   Overcast
5:46 PM 44.6°F 41.0°F 87% 30.38 in 4.0 miles SE 4.6 mph - N/A   Overcast
5:53 PM 43.0°F 41.0°F 93% 30.38 in 4.0 miles ESE 4.6 mph - N/A   Overcast
6:53 PM 44.1°F 41.0°F 89% 30.38 in 2.5 miles East 4.6 mph - 0.01 in   Overcast
7:09 PM 44.6°F 41.0°F 87% 30.38 in 3.0 miles ESE 3.5 mph - N/A   Overcast
7:53 PM 44.1°F 41.0°F 89% 30.38 in 6.0 miles ESE 3.5 mph - N/A   Overcast
8:21 PM 44.6°F 41.0°F 87% 30.38 in 6.0 miles Calm Calm - N/A   Overcast
8:53 PM 44.1°F 41.0°F 89% 30.38 in 6.0 miles East 4.6 mph - N/A   Overcast
9:33 PM 44.6°F 41.0°F 87% 30.38 in 6.0 miles Calm Calm - N/A   Overcast
9:53 PM 44.1°F 42.1°F 93% 30.38 in 5.0 miles Calm Calm - N/A   Overcast
10:53 PM 44.1°F 41.0°F 89% 30.39 in 7.0 miles Calm Calm - N/A   Overcast
11:53 PM 44.1°F 42.1°F 93% 30.40 in 4.0 miles Calm Calm - N/A   Overcast
Moon Phase
Feb. 11 Feb. 17 Feb. 25 Mar. 04 Mar. 11
Sunrise:07:18 AM (PST) Moon Rise:07:38 AM (PST)2/11
Sunset:05:32 PM (PST) Moon Set:07:44 PM (PST)2/11

Copyright © 2014 The Weather Underground, Inc.